FW9209 Weather Reports


time (UTC)temp
C
wind
direction
speed
KPH
gust
KPH
rain 1hr
cm
rain 24hr
cm
rain mn
cm
humidity
%
barometer
mb
20260507223058 10 246 0.0 11.3 0.00 0.00 0.00 39 1009.0
20260507221556 10 278 0.0 14.5 0.00 0.00 0.00 41 1009.0
20260507220058 10 206 0.0 8.0 0.00 0.00 0.00 41 1009.1
20260507214601 9 0 0.0 19.3 0.00 0.00 0.00 42 1009.1
20260507213110 9 222 1.6 9.7 0.00 0.00 0.00 41 1009.1
20260507211557 10 0 0.0 8.0 0.00 0.00 0.00 40 1009.1
20260507210057 9 0 0.0 1.6 0.00 0.00 0.00 42 1009.3
20260507204556 8 0 0.0 9.7 0.00 0.00 0.00 44 1009.4
20260507203106 9 250 0.0 8.0 0.00 0.00 0.00 40 1009.4
20260507201601 8 0 1.6 11.3 0.00 0.00 0.00 42 1009.6
20260507200054 8 304 0.0 6.4 0.00 0.00 0.00 42 1009.7
20260507194555 8 0 0.0 8.0 0.00 0.00 0.00 43 1009.8
20260507193100 8 240 1.6 9.7 0.00 0.00 0.00 46 1010.0
20260507191558 8 326 0.0 16.1 0.00 0.00 0.00 46 1010.0
20260507190056 8 297 1.6 16.1 0.00 0.00 0.00 44 1009.9
20260507184557 8 324 3.2 12.9 0.00 0.00 0.00 44 1009.9
20260507183056 8 258 1.6 12.9 0.00 0.00 0.00 46 1010.2
20260507181553 8 0 1.6 9.7 0.00 0.00 0.00 49 1010.2
20260507180055 7 264 0.0 4.8 0.00 0.00 0.00 50 1010.4
20260507174605 7 0 0.0 6.4 0.00 0.00 0.00 49 1010.4
20260507173102 7 153 4.8 11.3 0.00 0.00 0.00 49 1010.5
20260507171609 7 201 0.0 9.7 0.00 0.00 0.00 52 1010.7
20260507170059 7 249 0.0 11.3 0.00 0.00 0.00 53 1011.0
20260507164612 7 84 0.0 17.7 0.00 0.00 0.00 51 1011.1
20260507163059 7 0 0.0 12.9 0.00 0.00 0.00 49 1011.1
20260507161606 7 269 0.0 11.3 0.00 0.00 0.00 54 1011.4
20260507160101 6 250 0.0 14.5 0.00 0.00 0.00 53 1011.5
20260507154556 6 0 0.0 9.7 0.00 0.00 0.00 59 1011.6
20260507153055 6 0 1.6 16.1 0.00 0.00 0.00 57 1011.6
20260507151556 6 307 1.6 12.9 0.00 0.00 0.00 59 1011.7
20260507150106 5 276 6.4 16.1 0.00 0.00 0.00 61 1011.8
20260507144555 5 0 3.2 11.3 0.00 0.00 0.00 63 1011.9
20260507143100 4 254 3.2 8.0 0.00 0.00 0.00 65 1011.9
20260507141558 3 0 0.0 4.8 0.00 0.00 0.00 69 1012.1
20260507140054 3 264 0.0 11.3 0.00 0.00 0.00 71 1012.2
20260507134556 3 239 1.6 9.7 0.00 0.00 0.00 69 1012.3
20260507133057 3 210 0.0 6.4 0.00 0.00 0.00 69 1012.4
20260507131612 3 218 3.2 11.3 0.00 0.00 0.00 68 1012.4
20260507130100 3 0 0.0 6.4 0.00 0.00 0.00 69 1012.4
20260507124555 3 236 0.0 6.4 0.00 0.00 0.00 69 1012.4
20260507123051 2 202 0.0 4.8 0.00 0.00 0.00 71 1012.4
20260507121601 2 252 0.0 1.6 0.00 0.00 0.00 72 1012.3
20260507120057 2 0 0.0 6.4 0.00 0.00 0.00 72 1012.2
20260507114600 2 0 0.0 1.6 0.00 0.00 0.00 72 1012.2
20260507113054 2 0 0.0 1.6 0.00 0.00 0.00 74 1012.1
20260507111554 2 0 0.0 1.6 0.00 0.00 0.00 73 1011.9
20260507110114 2 0 0.0 1.6 0.00 0.00 0.00 72 1011.9
20260507104554 1 0 0.0 1.6 0.00 0.00 0.00 72 1011.9
20260507103057 1 0 0.0 1.6 0.00 0.00 0.00 72 1011.9
20260507101559 1 0 0.0 3.2 0.00 0.00 0.00 72 1011.9
20260507100055 1 0 0.0 0.0 0.00 0.00 0.00 72 1011.9
20260507094609 1 0 0.0 1.6 0.00 0.00 0.00 72 1011.9
20260507093100 1 0 0.0 1.6 0.00 0.00 0.00 72 1012.1
20260507091631 1 0 0.0 1.6 0.00 0.00 0.00 71 1012.0
20260507090106 1 0 0.0 0.0 0.00 0.00 0.00 71 1012.1
20260507084557 1 0 0.0 0.0 0.00 0.00 0.00 71 1012.1
20260507083053 1 0 0.0 0.0 0.00 0.00 0.00 72 1012.1
20260507081552 1 0 0.0 1.6 0.00 0.00 0.00 74 1012.2
20260507080055 1 0 0.0 0.0 0.00 0.00 0.00 78 1012.2
20260507074553 1 0 0.0 0.0 0.00 0.00 0.00 77 1012.3
20260507073054 1 0 0.0 0.0 0.00 0.00 0.00 76 1012.3
20260507071557 1 0 0.0 0.0 0.00 0.00 0.00 76 1012.4
20260507070104 1 0 0.0 0.0 0.00 0.00 0.00 75 1012.6
20260507064556 1 0 0.0 0.0 0.00 0.00 0.00 74 1012.7
20260507063057 1 0 0.0 0.0 0.00 0.00 0.00 72 1012.7
20260507061556 1 0 0.0 0.0 0.00 0.00 0.00 70 1012.9
20260507060104 2 0 0.0 0.0 0.00 0.00 0.00 70 1013.0
20260507054556 2 0 0.0 1.6 0.00 0.00 0.00 69 1013.1
20260507053100 2 0 0.0 1.6 0.00 0.00 0.00 69 1013.2
20260507051556 2 0 0.0 1.6 0.00 0.00 0.00 68 1013.3
20260507050103 2 0 0.0 4.8 0.00 0.00 0.00 67 1013.5
20260507044552 2 226 0.0 6.4 0.00 0.00 0.00 66 1013.5
20260507043100 3 265 0.0 6.4 0.00 0.00 0.00 65 1013.6
20260507041556 3 0 0.0 9.7 0.00 0.00 0.00 66 1013.6
20260507040101 3 0 1.6 8.0 0.00 0.00 0.00 65 1013.8
20260507034601 3 252 0.0 4.8 0.00 0.00 0.00 66 1013.7
20260507033054 3 0 0.0 4.8 0.00 0.00 0.00 65 1013.8
20260507031555 3 0 0.0 8.0 0.00 0.00 0.00 64 1013.7
20260507030056 3 0 0.0 3.2 0.00 0.00 0.00 63 1013.9
20260507024600 3 0 0.0 3.2 0.00 0.00 0.00 64 1013.9
20260507023056 3 0 0.0 3.2 0.00 0.00 0.00 63 1013.8
20260507021600 3 0 0.0 0.0 0.00 0.00 0.00 63 1013.7
20260507020059 4 0 0.0 8.0 0.00 0.00 0.00 60 1013.6
20260507014600 4 0 0.0 3.2 0.00 0.00 0.00 61 1013.5
20260507013057 4 0 0.0 6.4 0.00 0.00 0.00 59 1013.4
20260507011609 5 0 0.0 11.3 0.00 0.00 0.00 59 1013.4
20260507010116 5 266 0.0 9.7 0.00 0.00 0.00 58 1013.3
20260507004600 5 262 0.0 6.4 0.00 0.00 0.00 56 1013.2
20260507003108 5 0 0.0 4.8 0.00 0.00 0.00 56 1013.3
20260507001601 5 0 0.0 9.7 0.00 0.00 0.00 56 1013.1
20260507000101 5 250 0.0 8.0 0.00 0.00 0.00 56 1013.1
20260506234614 5 239 0.0 9.7 0.00 0.00 0.00 55 1013.1
20260506233102 5 303 3.2 14.5 0.00 0.00 0.00 54 1013.1
20260506231601 6 313 0.0 9.7 0.00 0.00 0.00 54 1013.1
20260506230059 6 229 0.0 6.4 0.00 0.00 0.00 53 1013.1
20260506224554 6 257 1.6 16.1 0.00 0.00 0.00 54 1013.0